| time (UTC) | temp F | wind direction | speed MPH | gust MPH | rain 1hr in | rain 24hr in | rain mn in | humidity % | barometer mb |
| 20260506023603 | 47 | 306 | 3.0 | 5.0 | 0.00 | 0.00 | 0.00 | 48 | 1009.4 |
| 20260506023102 | 47 | 306 | 3.0 | 4.0 | 0.00 | 0.00 | 0.00 | 49 | 1009.3 |
| 20260506022603 | 47 | 306 | 3.0 | 4.0 | 0.00 | 0.00 | 0.00 | 49 | 1009.3 |
| 20260506022108 | 47 | 306 | 3.0 | 4.0 | 0.00 | 0.00 | 0.00 | 49 | 1009.3 |
| 20260506021734 | 47 | 306 | 3.0 | 4.0 | 0.00 | 0.00 | 0.00 | 48 | 1009.1 |
| 20260506021626 | 47 | 306 | 3.0 | 4.0 | 0.00 | 0.00 | 0.00 | 48 | 1009.2 |
| 20260506020602 | 47 | 306 | 3.0 | 4.0 | 0.00 | 0.00 | 0.00 | 48 | 1009.0 |
| 20260506015605 | 48 | 306 | 4.0 | 5.0 | 0.00 | 0.00 | 0.00 | 47 | 1009.0 |
| 20260506015102 | 48 | 311 | 4.0 | 7.0 | 0.00 | 0.00 | 0.00 | 46 | 1009.0 |
| 20260506014602 | 48 | 310 | 4.0 | 7.0 | 0.00 | 0.00 | 0.00 | 46 | 1008.9 |
| 20260506014101 | 48 | 301 | 4.0 | 5.0 | 0.00 | 0.00 | 0.00 | 46 | 1008.9 |
| 20260506013604 | 49 | 309 | 4.0 | 7.0 | 0.00 | 0.00 | 0.00 | 45 | 1008.8 |
| 20260506013100 | 49 | 308 | 4.0 | 7.0 | 0.00 | 0.00 | 0.00 | 44 | 1008.7 |
| 20260506012604 | 49 | 309 | 4.0 | 7.0 | 0.00 | 0.00 | 0.00 | 45 | 1008.7 |
| 20260506012330 | 49 | 307 | 5.0 | 8.0 | 0.00 | 0.00 | 0.00 | 43 | 1008.7 |
| 20260506012137 | 49 | 309 | 5.0 | 8.0 | 0.00 | 0.00 | 0.00 | 44 | 1008.7 |
| 20260506011305 | 49 | 310 | 4.0 | 8.0 | 0.00 | 0.00 | 0.00 | 44 | 1008.6 |
| 20260506011124 | 49 | 310 | 5.0 | 8.0 | 0.00 | 0.00 | 0.00 | 43 | 1008.6 |
| 20260506010316 | 50 | 309 | 2.0 | 4.0 | 0.00 | 0.00 | 0.00 | 44 | 1008.6 |
| 20260506010128 | 49 | 304 | 3.0 | 8.0 | 0.00 | 0.00 | 0.00 | 43 | 1008.6 |
| 20260506005056 | 50 | 309 | 3.0 | 4.0 | 0.00 | 0.00 | 0.00 | 42 | 1008.5 |
| 20260506004757 | 50 | 297 | 3.0 | 6.0 | 0.00 | 0.00 | 0.00 | 42 | 1008.4 |
| 20260506004614 | 50 | 311 | 3.0 | 4.0 | 0.00 | 0.00 | 0.00 | 44 | 1008.4 |
| 20260506003549 | 50 | 313 | 4.0 | 8.0 | 0.00 | 0.00 | 0.00 | 42 | 1008.4 |
| 20260506003048 | 50 | 304 | 6.0 | 9.0 | 0.00 | 0.00 | 0.00 | 41 | 1008.3 |
| 20260506002839 | 51 | 309 | 4.0 | 8.0 | 0.00 | 0.00 | 0.00 | 41 | 1008.3 |
| 20260506002622 | 50 | 310 | 6.0 | 9.0 | 0.00 | 0.00 | 0.00 | 40 | 1008.3 |
| 20260506001548 | 51 | 306 | 4.0 | 6.0 | 0.00 | 0.00 | 0.00 | 41 | 1008.3 |
| 20260506001050 | 51 | 307 | 4.0 | 7.0 | 0.00 | 0.00 | 0.00 | 41 | 1008.3 |
| 20260506000550 | 51 | 307 | 5.0 | 8.0 | 0.00 | 0.00 | 0.00 | 41 | 1008.2 |
| 20260506000047 | 51 | 305 | 5.0 | 8.0 | 0.00 | 0.00 | 0.00 | 41 | 1008.2 |
| 20260505235546 | 51 | 307 | 5.0 | 7.0 | 0.00 | 0.00 | 0.00 | 41 | 1008.2 |
| 20260505235049 | 51 | 302 | 5.0 | 7.0 | 0.00 | 0.00 | 0.00 | 41 | 1008.2 |
| 20260505234817 | 51 | 311 | 5.0 | 8.0 | 0.00 | 0.00 | 0.00 | 41 | 1008.2 |
| 20260505234619 | 51 | 294 | 5.0 | 8.0 | 0.00 | 0.00 | 0.00 | 41 | 1008.2 |
| 20260505233544 | 51 | 298 | 4.0 | 7.0 | 0.00 | 0.00 | 0.00 | 40 | 1008.1 |
| 20260505233044 | 51 | 308 | 4.0 | 7.0 | 0.00 | 0.00 | 0.00 | 41 | 1008.2 |
| 20260505232542 | 51 | 298 | 5.0 | 8.0 | 0.00 | 0.00 | 0.00 | 41 | 1008.2 |
| 20260505232042 | 51 | 308 | 6.0 | 9.0 | 0.00 | 0.00 | 0.00 | 38 | 1008.2 |
| 20260505231543 | 51 | 310 | 7.0 | 9.0 | 0.00 | 0.00 | 0.00 | 38 | 1008.2 |
| 20260505231047 | 51 | 303 | 7.0 | 10.0 | 0.00 | 0.00 | 0.00 | 39 | 1008.3 |
| 20260505230646 | 52 | 306 | 7.0 | 12.0 | 0.00 | 0.00 | 0.00 | 38 | 1008.4 |
| 20260505230547 | 51 | 302 | 7.0 | 10.0 | 0.00 | 0.00 | 0.00 | 39 | 1008.2 |
| 20260505230215 | 52 | 305 | 7.0 | 10.0 | 0.00 | 0.00 | 0.00 | 38 | 1008.3 |
| 20260505225615 | 52 | 302 | 7.0 | 12.0 | 0.00 | 0.00 | 0.00 | 38 | 1008.4 |
| 20260505224543 | 53 | 309 | 8.0 | 10.0 | 0.00 | 0.00 | 0.00 | 36 | 1008.4 |
| 20260505224042 | 53 | 315 | 8.0 | 10.0 | 0.00 | 0.00 | 0.00 | 36 | 1008.3 |
| 20260505223542 | 52 | 298 | 8.0 | 11.0 | 0.00 | 0.00 | 0.00 | 37 | 1008.3 |
| 20260505223036 | 52 | 308 | 9.0 | 11.0 | 0.00 | 0.00 | 0.00 | 36 | 1008.3 |
| 20260505222539 | 52 | 300 | 8.0 | 12.0 | 0.00 | 0.00 | 0.00 | 36 | 1008.2 |
| 20260505222042 | 52 | 323 | 8.0 | 12.0 | 0.00 | 0.00 | 0.00 | 37 | 1008.2 |
| 20260505221543 | 53 | 316 | 6.0 | 9.0 | 0.00 | 0.00 | 0.00 | 36 | 1008.2 |
| 20260505221042 | 53 | 306 | 6.0 | 9.0 | 0.00 | 0.00 | 0.00 | 39 | 1008.1 |
| 20260505220538 | 53 | 296 | 7.0 | 11.0 | 0.00 | 0.00 | 0.00 | 39 | 1008.1 |
| 20260505220041 | 53 | 288 | 7.0 | 11.0 | 0.00 | 0.00 | 0.00 | 37 | 1008.1 |
| 20260505215540 | 53 | 306 | 8.0 | 13.0 | 0.00 | 0.00 | 0.00 | 37 | 1008.2 |
| 20260505215040 | 54 | 309 | 7.0 | 13.0 | 0.00 | 0.00 | 0.00 | 36 | 1008.2 |
| 20260505214807 | 55 | 286 | 6.0 | 12.0 | 0.00 | 0.00 | 0.00 | 35 | 1008.1 |
| 20260505214610 | 55 | 307 | 5.0 | 10.0 | 0.00 | 0.00 | 0.00 | 35 | 1008.1 |
| 20260505213540 | 55 | 293 | 9.0 | 13.0 | 0.00 | 0.00 | 0.00 | 37 | 1008.1 |
| 20260505213043 | 56 | 313 | 9.0 | 14.0 | 0.00 | 0.00 | 0.00 | 36 | 1008.2 |
| 20260505212545 | 56 | 301 | 9.0 | 14.0 | 0.00 | 0.00 | 0.00 | 35 | 1008.1 |
| 20260505212043 | 56 | 310 | 7.0 | 14.0 | 0.00 | 0.00 | 0.00 | 36 | 1008.1 |
| 20260505211733 | 54 | 311 | 9.0 | 14.0 | 0.00 | 0.00 | 0.00 | 36 | 1008.2 |
| 20260505211651 | 54 | 290 | 10.0 | 15.0 | 0.00 | 0.00 | 0.00 | 36 | 1008.2 |
| 20260505211553 | 55 | 292 | 6.0 | 10.0 | 0.00 | 0.00 | 0.00 | 40 | 1008.2 |
| 20260505211228 | 54 | 292 | 7.0 | 10.0 | 0.00 | 0.00 | 0.00 | 41 | 1008.1 |
| 20260505210645 | 54 | 277 | 9.0 | 15.0 | 0.00 | 0.00 | 0.00 | 37 | 1008.3 |
| 20260505205034 | 54 | 298 | 9.0 | 13.0 | 0.00 | 0.00 | 0.00 | 39 | 1008.2 |
| 20260505204531 | 54 | 296 | 9.0 | 13.0 | 0.00 | 0.00 | 0.00 | 36 | 1008.2 |
| 20260505204038 | 54 | 301 | 7.0 | 13.0 | 0.00 | 0.00 | 0.00 | 36 | 1008.2 |
| 20260505203532 | 54 | 297 | 7.0 | 13.0 | 0.00 | 0.00 | 0.00 | 38 | 1008.3 |
| 20260505203032 | 55 | 326 | 7.0 | 12.0 | 0.00 | 0.00 | 0.00 | 38 | 1008.4 |
| 20260505202530 | 55 | 299 | 6.0 | 11.0 | 0.00 | 0.00 | 0.00 | 36 | 1008.3 |
| 20260505202029 | 54 | 271 | 6.0 | 11.0 | 0.00 | 0.00 | 0.00 | 39 | 1008.3 |
| 20260505201531 | 53 | 300 | 6.0 | 11.0 | 0.00 | 0.00 | 0.00 | 43 | 1008.3 |
| 20260505201030 | 53 | 302 | 9.0 | 14.0 | 0.00 | 0.00 | 0.00 | 36 | 1008.3 |
| 20260505200749 | 54 | 301 | 9.0 | 14.0 | 0.00 | 0.00 | 0.00 | 34 | 1008.3 |
| 20260505200608 | 53 | 292 | 9.0 | 14.0 | 0.00 | 0.00 | 0.00 | 37 | 1008.4 |
| 20260505195739 | 54 | 306 | 9.0 | 16.0 | 0.00 | 0.00 | 0.00 | 36 | 1008.4 |
| 20260505195604 | 53 | 309 | 10.0 | 16.0 | 0.00 | 0.00 | 0.00 | 36 | 1008.4 |
| 20260505194531 | 54 | 304 | 7.0 | 13.0 | 0.00 | 0.00 | 0.00 | 36 | 1008.4 |
| 20260505194237 | 55 | 305 | 8.0 | 13.0 | 0.00 | 0.00 | 0.00 | 37 | 1008.3 |
| 20260505194108 | 55 | 295 | 8.0 | 13.0 | 0.00 | 0.00 | 0.00 | 38 | 1008.5 |
| 20260505193249 | 54 | 292 | 8.0 | 13.0 | 0.00 | 0.00 | 0.00 | 40 | 1008.5 |
| 20260505193101 | 54 | 290 | 8.0 | 13.0 | 0.00 | 0.00 | 0.00 | 39 | 1008.4 |
| 20260505192034 | 53 | 294 | 9.0 | 13.0 | 0.00 | 0.00 | 0.00 | 39 | 1008.4 |
| 20260505191534 | 53 | 302 | 8.0 | 14.0 | 0.00 | 0.00 | 0.00 | 38 | 1008.5 |
| 20260505191231 | 54 | 312 | 10.0 | 13.0 | 0.00 | 0.00 | 0.00 | 37 | 1008.5 |
| 20260505191102 | 54 | 289 | 9.0 | 14.0 | 0.00 | 0.00 | 0.00 | 41 | 1008.4 |
| 20260505190029 | 55 | 306 | 10.0 | 14.0 | 0.00 | 0.00 | 0.00 | 36 | 1008.5 |
| 20260505185533 | 55 | 299 | 7.0 | 14.0 | 0.00 | 0.00 | 0.00 | 34 | 1008.5 |
| 20260505185029 | 55 | 305 | 5.0 | 9.0 | 0.00 | 0.00 | 0.00 | 37 | 1008.5 |
| 20260505184745 | 56 | 265 | 6.0 | 12.0 | 0.00 | 0.00 | 0.00 | 34 | 1008.5 |
| 20260505184602 | 56 | 297 | 5.0 | 9.0 | 0.00 | 0.00 | 0.00 | 36 | 1008.5 |
| 20260505183533 | 56 | 277 | 7.0 | 13.0 | 0.00 | 0.00 | 0.00 | 38 | 1008.5 |
| 20260505183029 | 57 | 294 | 7.0 | 13.0 | 0.00 | 0.00 | 0.00 | 32 | 1008.4 |
| 20260505182800 | 57 | 256 | 6.0 | 10.0 | 0.00 | 0.00 | 0.00 | 35 | 1008.2 |
| 20260505182606 | 57 | 298 | 6.0 | 10.0 | 0.00 | 0.00 | 0.00 | 39 | 1008.3 |
| 20260505181756 | 56 | 294 | 8.0 | 12.0 | 0.00 | 0.00 | 0.00 | 38 | 1008.2 |
| 20260505181609 | 56 | 297 | 6.0 | 11.0 | 0.00 | 0.00 | 0.00 | 39 | 1008.3 |
| 20260505180742 | 54 | 308 | 5.0 | 10.0 | 0.00 | 0.00 | 0.00 | 39 | 1008.3 |
| 20260505180654 | 55 | 286 | 5.0 | 14.0 | 0.00 | 0.00 | 0.00 | 38 | 1008.3 |
| 20260505180550 | 55 | 306 | 8.0 | 12.0 | 0.00 | 0.00 | 0.00 | 39 | 1008.3 |
| 20260505180231 | 55 | 307 | 8.0 | 12.0 | 0.00 | 0.00 | 0.00 | 40 | 1008.3 |
| 20260505175634 | 55 | 291 | 7.0 | 14.0 | 0.00 | 0.00 | 0.00 | 38 | 1008.3 |
| 20260505174256 | 53 | 304 | 8.0 | 12.0 | 0.00 | 0.00 | 0.00 | 38 | 1008.3 |
| 20260505174108 | 54 | 280 | 7.0 | 12.0 | 0.00 | 0.00 | 0.00 | 38 | 1008.4 |
| 20260505173033 | 53 | 294 | 7.0 | 12.0 | 0.00 | 0.00 | 0.00 | 37 | 1008.3 |
| 20260505172529 | 52 | 239 | 5.0 | 11.0 | 0.00 | 0.00 | 0.00 | 40 | 1008.2 |
| 20260505172031 | 52 | 313 | 4.0 | 11.0 | 0.00 | 0.00 | 0.00 | 39 | 1008.2 |
| 20260505171529 | 52 | 280 | 7.0 | 13.0 | 0.00 | 0.00 | 0.00 | 39 | 1008.3 |
| 20260505171029 | 52 | 300 | 8.0 | 13.0 | 0.00 | 0.00 | 0.00 | 36 | 1008.3 |
| 20260505170530 | 52 | 355 | 9.0 | 15.0 | 0.00 | 0.00 | 0.00 | 37 | 1008.3 |
| 20260505170258 | 52 | 316 | 8.0 | 15.0 | 0.00 | 0.00 | 0.00 | 34 | 1008.2 |
| 20260505170110 | 52 | 309 | 11.0 | 15.0 | 0.00 | 0.00 | 0.00 | 37 | 1008.3 |
| 20260505165250 | 53 | 254 | 6.0 | 14.0 | 0.00 | 0.00 | 0.00 | 35 | 1008.4 |
| 20260505165108 | 52 | 302 | 5.0 | 12.0 | 0.00 | 0.00 | 0.00 | 37 | 1008.4 |
| 20260505164032 | 53 | 292 | 7.0 | 16.0 | 0.00 | 0.00 | 0.00 | 38 | 1008.4 |
| 20260505163530 | 53 | 311 | 5.0 | 16.0 | 0.00 | 0.00 | 0.00 | 35 | 1008.4 |
| 20260505163028 | 53 | 302 | 5.0 | 9.0 | 0.00 | 0.00 | 0.00 | 38 | 1008.4 |
| 20260505162529 | 53 | 294 | 6.0 | 10.0 | 0.00 | 0.00 | 0.00 | 37 | 1008.4 |
| 20260505162032 | 53 | 309 | 6.0 | 10.0 | 0.00 | 0.00 | 0.00 | 38 | 1008.4 |
| 20260505161533 | 52 | 274 | 5.0 | 9.0 | 0.00 | 0.00 | 0.00 | 37 | 1008.3 |
| 20260505161028 | 52 | 309 | 6.0 | 10.0 | 0.00 | 0.00 | 0.00 | 36 | 1008.3 |
| 20260505160530 | 53 | 320 | 7.0 | 10.0 | 0.00 | 0.00 | 0.00 | 33 | 1008.3 |
| 20260505153036 | 53 | 307 | 8.0 | 13.0 | 0.00 | 0.00 | 0.00 | 35 | 1008.1 |
| 20260505152530 | 52 | 316 | 8.0 | 13.0 | 0.00 | 0.00 | 0.00 | 35 | 1008.1 |
| 20260505152030 | 52 | 311 | 7.0 | 13.0 | 0.00 | 0.00 | 0.00 | 35 | 1008.1 |
| 20260505151531 | 52 | 263 | 8.0 | 13.0 | 0.00 | 0.00 | 0.00 | 34 | 1008.1 |
| 20260505151035 | 52 | 301 | 11.0 | 14.0 | 0.00 | 0.00 | 0.00 | 35 | 1008.2 |
| 20260505150529 | 52 | 318 | 10.0 | 14.0 | 0.00 | 0.00 | 0.00 | 35 | 1008.1 |
| 20260505140503 | 51 | 306 | 6.0 | 8.0 | 0.00 | 0.00 | 0.00 | 44 | 1008.2 |
| 20260505125003 | 47 | 294 | 4.0 | 7.0 | 0.00 | 0.00 | 0.00 | 53 | 1007.9 |
| 20260505124459 | 47 | 306 | 4.0 | 7.0 | 0.00 | 0.00 | 0.00 | 53 | 1007.8 |
| 20260505123959 | 47 | 305 | 4.0 | 7.0 | 0.00 | 0.00 | 0.00 | 54 | 1007.6 |
| 20260505123458 | 47 | 308 | 4.0 | 7.0 | 0.00 | 0.00 | 0.00 | 56 | 1007.6 |
| 20260505123318 | 46 | 298 | 3.0 | 4.0 | 0.00 | 0.00 | 0.00 | 56 | 1007.5 |
| 20260505122456 | 46 | 299 | 3.0 | 4.0 | 0.00 | 0.00 | 0.00 | 57 | 1007.4 |
| 20260505121958 | 46 | 299 | 3.0 | 4.0 | 0.00 | 0.00 | 0.00 | 58 | 1007.3 |
| 20260505121456 | 45 | 300 | 3.0 | 4.0 | 0.00 | 0.00 | 0.00 | 60 | 1007.3 |
| 20260505121311 | 44 | 300 | 2.0 | 3.0 | 0.00 | 0.00 | 0.00 | 62 | 1007.2 |
| 20260505120757 | 44 | 300 | 2.0 | 3.0 | 0.00 | 0.00 | 0.00 | 63 | 1007.1 |
| 20260505120255 | 43 | 300 | 2.0 | 3.0 | 0.00 | 0.00 | 0.00 | 64 | 1006.9 |
| 20260505115450 | 42 | 300 | 2.0 | 3.0 | 0.00 | 0.00 | 0.00 | 64 | 1006.7 |
| 20260505114950 | 42 | 300 | 2.0 | 3.0 | 0.00 | 0.00 | 0.00 | 64 | 1006.7 |
| 20260505114451 | 41 | 300 | 3.0 | 4.0 | 0.00 | 0.00 | 0.00 | 64 | 1006.5 |
| 20260505113951 | 40 | 300 | 3.0 | 4.0 | 0.00 | 0.00 | 0.00 | 64 | 1006.3 |
| 20260505113450 | 40 | 300 | 3.0 | 4.0 | 0.00 | 0.00 | 0.00 | 65 | 1006.3 |
| 20260505112948 | 39 | 300 | 2.0 | 4.0 | 0.00 | 0.00 | 0.00 | 65 | 1006.2 |
| 20260505112447 | 39 | 300 | 2.0 | 3.0 | 0.00 | 0.00 | 0.00 | 65 | 1006.2 |
| 20260505111946 | 39 | 300 | 2.0 | 2.0 | 0.00 | 0.00 | 0.00 | 68 | 1006.0 |
| 20260505111446 | 39 | 300 | 2.0 | 2.0 | 0.00 | 0.00 | 0.00 | 67 | 1006.2 |
| 20260505111253 | 40 | 300 | 2.0 | 3.0 | 0.00 | 0.00 | 0.00 | 66 | 1006.2 |
| 20260505110444 | 40 | 300 | 2.0 | 3.0 | 0.00 | 0.00 | 0.00 | 65 | 1006.3 |
| 20260505101433 | 41 | 297 | 2.0 | 3.0 | 0.00 | 0.00 | 0.00 | 62 | 1005.7 |
| 20260505100930 | 41 | 297 | 2.0 | 3.0 | 0.00 | 0.00 | 0.00 | 62 | 1005.6 |
| 20260505100431 | 41 | 297 | 2.0 | 3.0 | 0.00 | 0.00 | 0.00 | 62 | 1005.4 |
| 20260505095929 | 41 | 297 | 2.0 | 4.0 | 0.00 | 0.00 | 0.00 | 61 | 1005.3 |
| 20260505095430 | 41 | 299 | 3.0 | 4.0 | 0.00 | 0.00 | 0.00 | 62 | 1005.3 |
| 20260505094929 | 41 | 299 | 3.0 | 4.0 | 0.00 | 0.00 | 0.00 | 62 | 1005.2 |
| 20260505094739 | 41 | 297 | 3.0 | 4.0 | 0.00 | 0.00 | 0.00 | 63 | 1005.2 |
| 20260505094039 | 41 | 295 | 3.0 | 4.0 | 0.00 | 0.00 | 0.00 | 64 | 1005.0 |
| 20260505094014 | 41 | 295 | 3.0 | 4.0 | 0.00 | 0.00 | 0.00 | 64 | 1005.1 |
| 20260505092928 | 41 | 289 | 3.0 | 4.0 | 0.00 | 0.00 | 0.00 | 65 | 1005.0 |
| 20260505092756 | 41 | 286 | 2.0 | 4.0 | 0.00 | 0.00 | 0.00 | 65 | 1005.0 |
| 20260505091929 | 41 | 304 | 2.0 | 4.0 | 0.00 | 0.00 | 0.00 | 64 | 1004.9 |
| 20260505091739 | 41 | 304 | 2.0 | 4.0 | 0.00 | 0.00 | 0.00 | 64 | 1004.9 |
| 20260505090931 | 41 | 304 | 2.0 | 4.0 | 0.00 | 0.00 | 0.00 | 64 | 1004.8 |
| 20260505090431 | 41 | 304 | 2.0 | 4.0 | 0.00 | 0.00 | 0.00 | 63 | 1004.8 |
| 20260505085932 | 41 | 304 | 2.0 | 3.0 | 0.00 | 0.00 | 0.00 | 63 | 1004.7 |
| 20260505085429 | 41 | 304 | 2.0 | 3.0 | 0.00 | 0.00 | 0.00 | 63 | 1004.7 |
| 20260505084929 | 42 | 305 | 2.0 | 3.0 | 0.00 | 0.00 | 0.00 | 62 | 1004.6 |
| 20260505084429 | 42 | 305 | 2.0 | 3.0 | 0.00 | 0.00 | 0.00 | 62 | 1004.5 |
| 20260505084235 | 42 | 305 | 2.0 | 3.0 | 0.00 | 0.00 | 0.00 | 62 | 1004.4 |
| 20260505083429 | 42 | 305 | 2.0 | 4.0 | 0.00 | 0.00 | 0.00 | 62 | 1004.4 |
| 20260505082929 | 42 | 305 | 2.0 | 4.0 | 0.00 | 0.00 | 0.00 | 61 | 1004.3 |
| 20260505082429 | 42 | 309 | 2.0 | 4.0 | 0.00 | 0.00 | 0.00 | 61 | 1004.2 |
| 20260505081935 | 42 | 309 | 2.0 | 4.0 | 0.00 | 0.00 | 0.00 | 61 | 1004.1 |
| 20260505081452 | 43 | 305 | 2.0 | 3.0 | 0.00 | 0.00 | 0.00 | 59 | 1004.0 |
| 20260505081431 | 42 | 305 | 2.0 | 3.0 | 0.00 | 0.00 | 0.00 | 61 | 1004.1 |
| 20260505081418 | 43 | 305 | 2.0 | 3.0 | 0.00 | 0.00 | 0.00 | 60 | 1004.1 |
| 20260505081100 | 42 | 305 | 2.0 | 3.0 | 0.00 | 0.00 | 0.00 | 61 | 1004.1 |
| 20260505080003 | 43 | 305 | 2.0 | 3.0 | 0.00 | 0.00 | 0.00 | 60 | 1004.0 |
| 20260505074929 | 44 | 305 | 2.0 | 3.0 | 0.00 | 0.00 | 0.00 | 58 | 1004.0 |
| 20260505074429 | 44 | 305 | 2.0 | 3.0 | 0.00 | 0.00 | 0.00 | 57 | 1004.0 |
| 20260505073930 | 44 | 305 | 2.0 | 3.0 | 0.00 | 0.00 | 0.00 | 56 | 1003.9 |
| 20260505073428 | 44 | 305 | 2.0 | 3.0 | 0.00 | 0.00 | 0.00 | 55 | 1003.9 |
| 20260505072930 | 44 | 305 | 2.0 | 3.0 | 0.00 | 0.00 | 0.00 | 54 | 1003.9 |
| 20260505072430 | 44 | 305 | 2.0 | 3.0 | 0.00 | 0.00 | 0.00 | 53 | 1004.0 |
| 20260505071933 | 45 | 305 | 2.0 | 3.0 | 0.00 | 0.00 | 0.00 | 53 | 1003.9 |
| 20260505071432 | 45 | 305 | 2.0 | 3.0 | 0.00 | 0.00 | 0.00 | 53 | 1003.9 |
| 20260505070936 | 45 | 305 | 2.0 | 4.0 | 0.00 | 0.00 | 0.00 | 53 | 1003.9 |
| 20260505070434 | 45 | 305 | 2.0 | 4.0 | 0.00 | 0.00 | 0.00 | 53 | 1004.0 |
| 20260505065931 | 45 | 306 | 2.0 | 3.0 | 0.00 | 0.00 | 0.00 | 53 | 1004.1 |
| 20260505065430 | 45 | 306 | 2.0 | 3.0 | 0.00 | 0.00 | 0.00 | 54 | 1004.1 |
| 20260505064930 | 45 | 306 | 2.0 | 4.0 | 0.00 | 0.00 | 0.00 | 55 | 1004.1 |
| 20260505064620 | 46 | 308 | 3.0 | 4.0 | 0.00 | 0.00 | 0.00 | 52 | 1004.1 |
| 20260505064456 | 46 | 306 | 3.0 | 4.0 | 0.00 | 0.00 | 0.00 | 53 | 1004.1 |
| 20260505063433 | 46 | 308 | 3.0 | 6.0 | 0.00 | 0.00 | 0.00 | 52 | 1004.0 |
| 20260505062933 | 46 | 308 | 3.0 | 6.0 | 0.00 | 0.00 | 0.00 | 51 | 1004.1 |
| 20260505062430 | 46 | 307 | 3.0 | 7.0 | 0.00 | 0.00 | 0.00 | 52 | 1004.2 |
| 20260505061929 | 46 | 307 | 4.0 | 7.0 | 0.00 | 0.00 | 0.00 | 50 | 1004.2 |
| 20260505061434 | 46 | 304 | 4.0 | 7.0 | 0.00 | 0.00 | 0.00 | 50 | 1004.2 |
| 20260505060933 | 46 | 309 | 4.0 | 7.0 | 0.00 | 0.00 | 0.00 | 50 | 1004.2 |
| 20260505060429 | 47 | 302 | 4.0 | 7.0 | 0.00 | 0.00 | 0.00 | 50 | 1004.2 |
| 20260505055930 | 47 | 306 | 4.0 | 7.0 | 0.00 | 0.00 | 0.00 | 50 | 1004.2 |
| 20260505055433 | 47 | 306 | 5.0 | 7.0 | 0.00 | 0.00 | 0.00 | 48 | 1004.2 |
| 20260505055134 | 47 | 306 | 8.0 | 10.0 | 0.00 | 0.00 | 0.00 | 47 | 1004.2 |
| 20260505054959 | 47 | 311 | 6.0 | 10.0 | 0.00 | 0.00 | 0.00 | 48 | 1004.2 |
| 20260505054313 | 48 | 294 | 8.0 | 11.0 | 0.00 | 0.00 | 0.00 | 47 | 1004.2 |
| 20260505054301 | 48 | 305 | 9.0 | 11.0 | 0.00 | 0.00 | 0.00 | 47 | 1004.1 |
| 20260505054031 | 47 | 303 | 8.0 | 10.0 | 0.00 | 0.00 | 0.00 | 48 | 1004.1 |
| 20260505052810 | 48 | 297 | 10.0 | 15.0 | 0.00 | 0.00 | 0.00 | 46 | 1004.0 |
| 20260505052758 | 48 | 298 | 10.0 | 15.0 | 0.00 | 0.00 | 0.00 | 45 | 1003.9 |
| 20260505052527 | 48 | 306 | 9.0 | 12.0 | 0.00 | 0.00 | 0.00 | 46 | 1004.0 |
| 20260505051311 | 49 | 308 | 11.0 | 16.0 | 0.00 | 0.00 | 0.00 | 46 | 1003.7 |
| 20260505051253 | 49 | 311 | 12.0 | 17.0 | 0.00 | 0.00 | 0.00 | 46 | 1003.7 |
| 20260505051018 | 48 | 302 | 10.0 | 14.0 | 0.00 | 0.00 | 0.00 | 46 | 1003.9 |
| 20260505050656 | 49 | 311 | 10.0 | 16.0 | 0.00 | 0.00 | 0.00 | 46 | 1003.9 |
| 20260505041702 | 51 | 325 | 8.0 | 12.0 | 0.00 | 0.00 | 0.00 | 45 | 1003.0 |
| 20260505041510 | 51 | 322 | 9.0 | 12.0 | 0.00 | 0.00 | 0.00 | 45 | 1003.1 |
| 20260505040432 | 51 | 323 | 8.0 | 11.0 | 0.00 | 0.00 | 0.00 | 47 | 1002.9 |
| 20260505035930 | 52 | 322 | 9.0 | 11.0 | 0.00 | 0.00 | 0.00 | 45 | 1002.8 |
| 20260505035428 | 52 | 321 | 7.0 | 11.0 | 0.00 | 0.00 | 0.00 | 46 | 1002.7 |
| 20260505034932 | 52 | 323 | 7.0 | 9.0 | 0.00 | 0.00 | 0.00 | 47 | 1002.7 |
| 20260505034433 | 52 | 306 | 7.0 | 11.0 | 0.00 | 0.00 | 0.00 | 46 | 1002.5 |
| 20260505034139 | 52 | 311 | 10.0 | 13.0 | 0.00 | 0.00 | 0.00 | 45 | 1002.4 |
| 20260505033956 | 52 | 303 | 9.0 | 13.0 | 0.00 | 0.00 | 0.00 | 46 | 1002.5 |
| 20260505032933 | 52 | 308 | 10.0 | 14.0 | 0.00 | 0.00 | 0.00 | 45 | 1002.3 |
| 20260505032429 | 53 | 304 | 11.0 | 15.0 | 0.00 | 0.00 | 0.00 | 45 | 1002.3 |
| 20260505032155 | 53 | 298 | 12.0 | 19.0 | 0.00 | 0.00 | 0.00 | 45 | 1002.3 |
| 20260505032006 | 53 | 304 | 13.0 | 19.0 | 0.00 | 0.00 | 0.00 | 45 | 1002.2 |
| 20260505030929 | 53 | 305 | 12.0 | 16.0 | 0.00 | 0.00 | 0.00 | 45 | 1002.2 |
| 20260505030430 | 53 | 305 | 12.0 | 16.0 | 0.00 | 0.00 | 0.00 | 45 | 1001.8 |
| 20260505025929 | 54 | 310 | 12.0 | 17.0 | 0.00 | 0.00 | 0.00 | 45 | 1001.7 |
| 20260505025632 | 55 | 304 | 10.0 | 16.0 | 0.00 | 0.00 | 0.00 | 45 | 1001.3 |
| 20260505025620 | 55 | 300 | 10.0 | 14.0 | 0.00 | 0.00 | 0.00 | 44 | 1001.2 |
| 20260505025541 | 55 | 309 | 9.0 | 14.0 | 0.00 | 0.00 | 0.00 | 44 | 1001.1 |
| 20260505025440 | 54 | 319 | 12.0 | 18.0 | 0.00 | 0.00 | 0.00 | 44 | 1001.7 |
| 20260505025111 | 54 | 308 | 12.0 | 18.0 | 0.00 | 0.00 | 0.00 | 45 | 1001.4 |